Vorticity
5 4 4 4 4 5 5 4 5 6 5 3 5 6 4 6 6 9 9 5 8 8 8 11 8 8 10 8 8 7 7 8 8 9 9 7 6 5 4 4 3 3 3 4 5 6 7 9 7 5 4 3 3 5 7 6 5 6 6 7 8 8 9 11 15 18 20 20 21 22 22 24 26 26 28 24 14 11 12 15 16 15 13 10 10 10
8 4 3 4 4 4 4 4 4 4 5 4 5 6 4 6 7 9 10 6 6 8 8 12 8 6 9 7 7 7 6 8 8 8 8 5 4 5 4 4 4 3 4 4 5 6 7 9 7 5 4 3 3 5 6 7 6 6 6 6 7 7 8 11 13 17 18 18 20 22 22 24 25 24 27 25 15 11 11 12 13 15 15 15 13 12
5 2 4 5 4 4 4 4 4 3 5 5 5 6 4 5 7 8 9 7 7 6 8 12 9 6 9 8 7 7 6 7 8 8 7 4 4 5 6 6 6 5 5 5 6 6 7 9 7 5 5 3 3 4 6 8 6 6 6 5 7 7 8 11 13 16 17 17 19 21 22 23 25 25 26 21 13 10 11 12 12 11 12 13 14 13
0 3 6 5 4 5 4 4 4 3 4 5 4 6 5 5 7 7 7 8 8 7 8 11 10 6 8 9 7 8 7 7 9 10 8 6 6 7 7 7 7 7 7 7 8 7 7 9 6 5 5 3 3 5 6 8 6 6 6 6 7 7 8 11 14 16 17 18 19 20 22 23 24 24 24 19 12 11 12 14 13 11 11 10 11 11
2 5 6 5 4 4 4 3 3 3 4 4 4 5 5 5 6 5 6 7 8 8 9 10 8 6 8 9 7 8 8 7 9 10 9 7 6 6 6 6 6 6 7 8 8 7 8 8 5 5 6 3 3 5 7 7 6 7 6 6 6 7 8 10 14 17 17 18 19 20 22 24 23 22 22 20 17 16 14 13 12 11 12 10 10 11
4 6 5 6 5 3 4 3 3 4 3 3 4 5 4 6 6 4 5 7 8 8 7 9 9 8 9 9 8 8 8 8 8 8 6 5 5 4 5 6 7 7 8 9 8 7 9 8 4 6 6 3 4 6 6 7 7 7 7 6 6 7 8 10 13 16 17 17 19 20 22 25 25 22 20 18 17 16 13 11 9 8 8 9 10 12
5 5 5 6 6 4 4 4 3 3 3 2 3 5 4 6 7 4 4 7 9 9 9 10 10 9 8 8 8 8 9 8 6 5 3 3 4 3 4 6 8 10 11 10 8 7 9 7 3 6 5 2 4 6 6 7 7 7 6 6 6 7 8 9 12 15 16 17 18 20 22 24 23 21 18 17 14 12 9 7 6 7 8 10 11 11
6 5 4 5 6 5 3 3 3 2 4 2 1 4 4 5 6 5 5 8 9 10 11 10 8 8 8 9 9 8 9 8 6 5 3 2 3 3 4 7 9 11 12 10 8 8 10 6 3 6 5 3 4 6 7 7 8 7 6 6 6 6 7 8 11 14 15 17 18 20 23 24 22 19 16 13 10 7 6 6 6 8 9 10 11 11
7 5 4 4 6 6 4 3 3 2 3 4 3 3 4 4 5 5 6 8 9 9 10 9 9 9 7 7 8 8 9 9 7 5 3 1 1 2 4 7 9 11 11 10 9 10 10 5 3 6 5 3 5 6 7 8 8 7 5 6 7 7 7 8 10 13 14 16 17 19 23 24 22 18 13 9 8 6 6 8 8 9 10 10 10 11
6 5 4 4 5 7 5 2 3 2 1 4 5 4 5 3 4 6 6 7 9 9 10 9 8 8 7 6 8 9 10 9 8 5 2 -0 -0 2 4 7 8 9 10 11 10 11 10 4 2 5 5 4 5 6 7 8 8 6 5 6 7 7 8 8 9 12 14 16 17 19 22 23 21 18 13 10 8 8 8 9 9 9 10 11 10 10
6 5 4 4 4 6 6 3 3 3 1 2 4 5 6 4 3 6 5 6 9 9 9 9 7 8 9 7 7 9 10 9 7 6 2 -1 0 3 5 6 7 9 10 11 11 11 9 3 2 5 5 4 5 7 7 7 7 5 5 7 7 7 7 8 9 10 13 15 16 19 20 20 19 17 14 12 10 10 10 9 10 10 10 12 13 12
5 4 4 4 3 4 5 4 3 4 3 2 3 5 5 4 4 5 4 6 9 8 8 9 8 8 8 7 7 8 9 8 7 7 2 -1 1 3 4 6 6 8 10 10 11 12 8 4 2 4 5 5 6 7 8 7 6 5 6 7 8 7 7 9 8 9 13 15 15 18 20 19 18 16 14 13 12 11 12 12 12 12 12 13 14 13
5 4 4 4 3 3 4 4 3 3 4 3 2 2 3 4 4 4 5 8 8 7 9 10 9 8 7 6 6 7 8 7 8 8 4 0 2 3 4 5 6 7 8 10 11 11 9 4 2 4 5 5 7 8 8 7 5 5 6 7 8 7 7 9 9 9 12 14 15 16 18 18 18 16 14 14 14 14 13 14 14 13 14 14 14 14
5 4 4 4 3 3 3 4 3 2 4 4 3 2 2 4 4 3 6 10 9 7 8 10 9 8 7 6 6 7 8 8 8 8 6 2 1 3 4 4 5 6 7 9 11 11 10 5 2 4 5 5 7 9 8 7 5 6 7 7 7 7 7 8 9 9 11 13 14 15 16 18 18 17 15 15 15 15 14 14 15 15 16 16 15 15
5 4 3 3 3 3 3 3 3 2 3 4 3 3 2 4 5 4 5 9 10 7 5 8 9 7 7 7 6 6 7 7 8 9 7 3 2 3 4 4 5 5 6 9 11 11 10 6 2 4 5 6 8 9 8 7 5 6 7 7 8 8 7 8 9 10 11 12 13 14 16 17 17 17 16 15 14 15 15 14 15 16 16 17 16 15
5 4 3 3 2 3 2 3 3 1 2 4 3 3 3 3 5 5 4 6 9 9 7 6 7 6 6 6 5 5 8 8 8 9 8 4 2 3 3 4 4 5 6 8 10 10 10 7 3 3 5 5 7 9 8 7 6 7 7 7 7 8 8 8 9 10 11 12 12 13 15 16 16 16 16 16 16 15 15 15 15 16 15 15 16 15
4 4 3 2 2 3 3 2 4 1 1 4 3 4 5 2 3 5 3 4 7 11 11 5 3 7 7 6 6 6 8 9 8 8 9 5 2 3 3 2 4 6 6 6 9 10 10 8 4 3 4 4 7 9 8 7 7 7 8 8 7 8 9 7 8 10 11 11 12 13 14 15 15 16 15 15 15 15 15 14 14 14 15 14 14 13
4 3 3 3 1 3 4 2 4 2 1 3 3 5 6 3 4 5 3 4 4 8 13 8 3 7 10 8 8 8 7 9 10 7 7 7 3 3 3 -0 1 6 6 5 8 10 10 9 6 3 3 3 6 8 9 8 7 7 8 9 8 8 9 8 7 9 11 11 13 13 14 15 14 15 15 14 14 15 14 14 14 13 13 13 12 12
3 2 3 5 2 2 4 3 4 3 2 3 3 4 6 4 4 6 4 5 4 5 11 13 6 4 8 8 6 8 7 8 11 8 6 7 4 3 4 0 -1 2 5 5 6 9 11 10 7 4 2 2 5 8 9 8 6 7 8 8 8 8 8 9 8 9 11 11 12 13 13 14 15 14 14 14 13 14 14 14 14 13 13 13 11 11
3 3 2 4 4 3 4 3 3 3 3 3 3 4 6 5 4 5 6 5 5 5 8 16 15 4 4 8 6 7 8 6 9 10 6 6 6 3 4 2 0 1 3 5 6 8 12 11 8 5 2 1 5 7 9 9 7 7 8 8 8 8 8 8 8 9 11 12 12 12 13 13 14 14 13 14 13 12 13 14 14 13 13 12 12 11
2 3 2 4 4 3 4 4 4 3 4 4 4 4 6 6 4 5 8 6 5 7 5 13 20 6 -1 8 7 6 10 5 6 10 6 6 7 4 3 4 3 3 2 3 6 7 11 12 8 5 2 1 3 7 9 9 8 7 8 8 7 9 9 8 8 9 10 12 12 12 14 13 13 13 12 12 12 12 13 13 13 14 13 13 12 11
2 3 3 3 3 4 5 5 4 3 4 5 5 5 6 7 5 3 8 7 5 7 4 8 18 7 -3 7 7 6 11 6 4 9 7 5 7 5 5 4 3 5 4 2 4 7 10 11 9 5 4 2 3 6 9 9 9 8 8 8 7 8 9 8 8 9 9 11 12 12 14 12 12 12 12 11 11 11 12 12 13 14 13 13 13 12
2 3 4 3 3 5 5 4 5 3 4 6 5 5 6 6 5 4 6 7 7 8 5 5 14 8 0 7 7 5 11 8 3 8 7 5 6 5 5 5 2 4 5 2 2 6 10 11 9 7 5 3 3 4 8 10 9 10 9 8 8 8 9 9 8 9 9 10 11 12 13 13 11 11 11 10 10 10 12 12 12 13 13 13 13 13
2 2 3 2 3 7 5 3 4 2 1 4 3 4 7 6 6 6 5 5 8 10 6 2 9 11 5 8 7 5 12 10 4 7 7 5 6 4 5 6 3 2 3 2 2 4 8 9 10 9 6 4 3 2 6 9 9 10 9 8 8 7 8 9 8 8 9 9 10 12 12 12 11 10 10 9 9 9 10 11 12 13 13 14 14 13
3 3 3 3 3 5 4 0 2 1 1 4 5 5 7 6 6 7 5 4 6 10 8 1 4 11 8 8 9 6 10 11 5 7 7 5 6 5 5 6 4 4 3 2 3 4 5 8 10 11 8 5 3 2 4 8 9 10 10 9 9 8 8 9 8 9 9 9 10 11 11 12 10 10 9 9 8 9 9 10 12 12 13 14 15 14
4 4 3 5 4 4 5 3 2 4 3 5 5 5 6 6 8 7 5 5 3 7 13 5 1 7 8 9 10 7 10 11 6 9 10 6 6 6 5 6 3 5 6 4 5 5 4 7 10 11 9 5 3 3 3 6 9 10 10 9 9 9 8 8 8 8 9 9 10 10 10 11 10 9 9 8 8 8 8 9 11 11 12 14 15 16
4 5 3 5 5 4 6 5 3 4 4 3 4 5 5 6 9 8 4 4 3 5 13 10 2 6 10 12 12 8 12 12 5 9 12 7 7 6 5 6 2 3 7 6 6 7 6 8 10 10 10 6 5 5 2 4 8 9 10 10 9 9 10 9 7 8 9 9 9 10 10 10 9 8 8 7 7 7 8 9 10 10 12 13 15 16
4 4 3 4 6 5 4 3 4 4 3 3 3 4 5 5 7 8 4 4 6 8 11 9 6 9 9 13 14 7 11 13 5 8 13 7 7 6 3 5 2 2 7 7 7 8 8 9 10 9 10 7 6 6 3 3 7 8 10 11 9 9 10 10 8 7 8 9 9 10 10 10 10 8 7 7 6 7 7 9 10 10 10 12 14 16
3 3 2 2 4 6 5 3 3 4 3 3 3 4 5 4 5 8 6 3 6 9 8 4 10 14 8 11 16 8 9 14 5 5 12 8 6 6 3 3 3 2 5 7 7 8 9 10 9 8 10 8 7 7 3 2 6 7 8 10 10 10 11 11 9 7 7 8 8 10 10 10 9 7 7 7 5 6 7 7 9 10 10 12 13 16
3 2 3 3 1 3 5 3 3 4 3 3 3 4 4 3 4 7 8 4 3 8 8 4 11 17 9 10 17 10 9 14 6 4 11 8 4 5 2 2 4 2 3 6 7 8 9 11 9 8 9 8 7 7 4 2 4 6 8 9 10 11 12 11 9 7 7 7 7 9 11 10 9 7 7 7 6 5 6 6 7 9 11 12 13 16
3 3 3 3 2 1 2 3 3 4 4 4 5 4 3 4 4 6 8 3 2 9 10 6 11 15 9 9 15 10 9 14 7 5 10 8 4 5 2 2 4 2 2 4 5 7 8 10 10 9 9 9 7 7 6 3 3 5 7 8 10 11 13 12 10 8 6 6 6 9 11 10 9 8 7 6 6 6 5 6 6 7 10 12 14 16
4 4 3 3 3 2 2 3 2 3 4 4 4 3 3 5 5 6 7 3 5 11 10 6 11 13 7 9 15 14 11 13 7 5 9 8 5 5 3 2 3 1 1 3 4 5 7 9 11 10 9 10 8 7 7 5 3 3 4 8 9 11 14 13 10 8 7 5 6 8 11 11 9 8 7 7 6 6 6 6 5 6 8 11 14 17
4 4 3 2 3 3 3 3 3 4 5 4 3 2 4 6 5 6 7 5 7 9 7 8 11 10 6 9 14 15 13 13 8 5 8 8 5 5 4 2 3 1 1 3 3 4 5 7 11 12 10 10 8 7 7 6 4 2 3 7 9 10 14 14 11 9 7 6 6 6 9 11 10 8 8 7 6 6 7 6 5 5 6 9 13 16
4 4 4 3 4 4 3 3 4 6 5 3 3 3 5 6 5 6 9 8 6 5 6 8 7 5 7 9 11 13 15 15 10 5 8 6 3 5 4 2 3 3 2 3 3 3 3 5 9 12 11 11 9 8 7 6 5 3 1 5 8 9 13 15 12 10 8 6 6 6 7 10 10 9 8 8 7 6 7 7 6 5 4 7 12 15
4 4 4 3 4 4 4 4 4 5 5 4 4 5 6 5 3 6 11 9 5 4 6 8 5 4 7 9 10 13 15 15 10 5 7 6 2 4 4 2 4 4 3 4 3 2 3 3 6 9 10 12 12 9 7 6 6 4 1 3 7 8 12 15 13 10 9 8 5 6 7 8 9 10 9 8 7 6 7 7 6 5 4 5 10 14
3 4 4 4 5 5 5 5 5 6 6 5 5 4 5 5 4 6 8 6 4 5 6 6 5 5 6 8 10 11 12 16 12 5 5 6 2 3 4 3 5 5 4 4 3 2 3 3 5 8 8 10 13 12 8 6 6 5 2 1 4 7 10 14 14 11 9 9 6 5 7 8 7 8 8 8 8 7 7 7 7 6 4 4 8 12
4 5 4 5 6 6 6 6 5 6 5 4 4 4 4 5 6 4 5 7 7 5 5 6 6 5 5 7 11 10 10 14 13 4 3 6 3 3 5 3 5 6 4 4 3 3 3 3 4 7 8 9 11 13 11 6 5 6 5 2 2 6 9 11 14 13 10 9 7 6 7 8 7 7 7 8 8 7 7 7 7 6 4 4 7 10
5 5 4 5 6 6 7 7 6 7 7 5 5 5 3 6 6 3 4 9 9 4 4 7 6 4 4 8 12 11 8 11 10 3 3 7 5 4 5 2 3 6 5 3 4 3 4 4 3 5 9 10 10 12 12 9 4 4 6 5 0 3 8 10 12 13 11 9 8 6 7 7 6 6 7 7 8 8 8 7 7 7 5 3 6 9
5 4 3 4 5 5 5 6 7 8 8 6 5 4 4 5 5 3 4 8 9 5 5 7 6 5 6 10 15 14 9 7 9 6 5 8 7 6 6 3 1 4 6 4 4 4 4 5 3 3 7 12 13 13 13 10 6 3 5 7 3 1 5 9 12 13 11 10 8 6 6 7 6 7 6 7 8 8 8 8 7 7 7 4 5 8
3 4 5 5 5 5 5 5 6 7 7 6 4 4 4 5 4 4 5 8 8 7 7 8 7 6 8 11 16 17 12 7 7 8 7 8 7 6 7 5 2 3 6 6 5 4 3 4 4 3 4 7 12 18 18 12 6 3 6 7 4 2 3 6 11 14 12 10 9 6 7 7 6 6 6 7 8 7 7 8 8 7 8 5 4 7
5 5 7 7 6 6 6 6 6 7 6 5 4 3 4 5 6 6 6 7 8 7 7 8 7 7 10 13 15 17 14 7 4 5 7 7 6 5 7 8 6 3 4 5 5 5 4 3 3 5 4 2 4 14 22 19 8 2 7 10 6 2 2 4 9 13 12 11 9 6 6 7 6 6 6 7 7 7 7 8 8 7 8 7 4 6
8 7 8 8 8 9 7 6 8 10 7 5 4 5 7 7 7 7 6 7 7 6 6 7 7 7 10 14 17 16 13 8 3 4 7 6 4 6 7 8 8 6 4 5 5 5 5 4 3 4 5 3 0 3 15 26 20 5 3 9 10 6 2 2 7 12 12 11 10 6 6 8 7 6 6 6 6 7 7 7 7 7 8 8 6 5
8 10 9 8 11 11 7 7 14 14 9 6 7 9 9 9 7 6 6 6 6 6 5 6 7 8 9 13 17 15 11 9 6 5 8 6 2 6 9 8 8 8 5 4 4 5 6 5 4 4 4 4 3 -1 2 16 24 18 9 7 9 9 6 2 5 11 13 11 10 7 5 6 8 7 6 6 5 6 8 8 7 7 7 9 7 5
8 10 8 8 13 12 7 12 18 12 5 7 11 13 11 8 7 6 5 5 5 6 7 6 7 10 11 13 16 13 9 10 9 6 7 6 2 5 10 9 8 8 7 5 4 4 6 6 5 5 5 4 4 3 0 2 10 19 24 19 11 8 9 6 3 9 13 11 9 8 5 5 8 8 6 4 5 6 7 7 7 7 7 8 8 6
11 12 7 8 11 7 5 13 17 9 3 8 14 14 9 4 5 5 4 6 7 7 8 8 9 13 14 12 12 12 10 9 9 7 7 5 4 6 10 10 8 6 7 7 4 1 3 6 5 4 5 4 3 3 4 2 -1 5 21 31 24 11 8 8 5 7 12 13 10 8 5 3 6 9 7 5 4 6 7 7 8 7 7 7 8 7
14 13 12 15 11 1 -0 10 13 7 4 7 13 14 7 3 6 7 5 6 8 7 7 9 10 14 15 12 10 12 11 7 7 9 8 4 4 8 9 9 8 6 5 7 6 1 -1 1 4 4 3 3 4 3 3 5 2 -2 7 25 32 22 11 7 7 7 10 13 12 8 5 3 4 7 9 8 5 5 6 8 8 7 8 7 7 8
15 10 13 21 17 6 6 12 12 7 3 7 13 13 6 5 8 8 7 8 7 5 6 9 11 13 14 12 10 11 12 7 5 9 10 6 5 7 8 7 6 4 4 5 5 3 -0 -3 0 5 3 1 3 5 3 3 4 1 -0 10 25 30 22 11 6 7 9 12 13 10 6 4 2 4 7 9 7 5 5 6 8 7 7 8 7 8
14 11 12 13 10 9 13 16 13 6 3 9 13 9 4 7 8 7 8 9 7 6 7 8 11 12 12 12 10 10 13 11 7 10 12 8 5 6 6 6 5 3 3 4 3 3 3 1 -1 2 5 3 1 3 5 3 3 4 2 1 10 26 31 20 8 6 8 11 13 12 7 5 3 2 4 6 7 7 5 4 7 8 7 8 8 7
12 16 18 13 9 12 14 14 12 8 4 7 10 8 7 9 7 5 8 8 8 9 7 5 7 10 11 11 9 8 13 14 11 11 12 8 5 6 6 5 4 2 2 4 4 3 3 3 2 2 7 7 1 0 4 4 2 3 4 1 2 15 30 27 14 7 7 10 13 13 8 5 4 3 3 3 5 8 7 5 5 7 7 7 8 7
9 16 17 13 14 17 14 11 11 10 8 10 11 10 10 8 6 5 6 5 6 8 7 5 6 7 8 10 8 7 11 13 11 10 10 8 5 5 5 4 3 3 2 3 5 4 2 3 3 2 4 5 1 -2 1 4 3 2 3 3 2 7 22 29 21 11 7 8 12 13 9 5 4 4 3 4 4 5 6 6 7 7 7 7 8 7
10 14 11 9 13 17 13 10 8 7 8 11 12 11 9 8 8 7 6 5 5 5 6 7 7 6 7 8 8 8 9 9 8 7 6 6 4 1 3 5 4 3 4 5 5 4 1 1 1 0 2 4 1 -2 -1 2 3 2 2 4 3 4 15 26 24 14 9 8 11 13 11 6 5 4 4 4 5 4 4 6 8 8 7 7 7 7
Height
5859 5858 5857 5855 5852 5850 5848 5847 5846 5844 5842 5840 5837 5834 5831 5828 5826 5824 5821 5818 5814 5811 5808 5805 5802 5799 5795 5791 5787 5783 5779 5776 5772 5768 5765 5761 5757 5752 5748 5743 5739 5734 5729 5724 5719 5715 5709 5703 5697 5691 5684 5677 5669 5662 5654 5646 5638 5629 5620 5611 5602 5592 5582 5572 5561 5550 5539 5529 5520 5510 5502 5494 5487 5481 5476 5471 5468 5464 5461 5458 5455 5452 5450 5447 5445 5443
5859 5859 5858 5855 5852 5849 5848 5847 5845 5844 5842 5840 5836 5833 5830 5827 5825 5823 5820 5817 5813 5810 5807 5804 5801 5798 5794 5790 5786 5781 5778 5774 5771 5767 5764 5759 5755 5750 5745 5741 5736 5730 5725 5721 5716 5712 5706 5700 5694 5687 5680 5673 5665 5658 5650 5642 5633 5625 5616 5607 5599 5589 5578 5567 5556 5545 5535 5525 5515 5506 5497 5489 5483 5477 5473 5469 5465 5461 5458 5455 5452 5449 5447 5444 5441 5439
5861 5859 5857 5854 5852 5849 5847 5846 5845 5844 5842 5840 5836 5833 5830 5827 5825 5822 5819 5816 5813 5809 5807 5804 5800 5797 5793 5788 5784 5780 5777 5773 5770 5766 5762 5757 5752 5747 5742 5737 5732 5727 5722 5718 5714 5709 5703 5697 5691 5684 5677 5669 5662 5654 5645 5637 5629 5621 5613 5604 5595 5585 5574 5563 5552 5541 5531 5521 5511 5502 5493 5485 5479 5474 5469 5466 5462 5459 5455 5452 5449 5446 5443 5440 5438 5435
5862 5859 5856 5854 5851 5848 5847 5846 5845 5844 5842 5840 5836 5832 5829 5826 5824 5822 5819 5816 5813 5809 5806 5803 5799 5796 5792 5787 5783 5780 5776 5772 5768 5764 5760 5755 5750 5744 5739 5733 5729 5724 5720 5716 5711 5705 5700 5694 5687 5681 5674 5666 5658 5649 5641 5634 5626 5618 5610 5601 5591 5580 5570 5559 5548 5538 5528 5518 5508 5500 5491 5483 5476 5471 5467 5463 5460 5457 5454 5450 5447 5444 5441 5437 5434 5431
5862 5858 5856 5854 5850 5849 5848 5847 5846 5844 5842 5839 5835 5832 5829 5826 5824 5821 5818 5816 5813 5809 5806 5802 5799 5796 5792 5787 5783 5779 5775 5771 5767 5763 5758 5752 5747 5741 5735 5730 5727 5723 5718 5713 5707 5702 5696 5690 5684 5678 5671 5662 5654 5646 5638 5630 5623 5615 5606 5596 5586 5576 5566 5556 5546 5536 5526 5516 5508 5499 5492 5484 5477 5471 5467 5463 5460 5456 5452 5449 5445 5442 5439 5435 5432 5428
5861 5859 5856 5853 5851 5850 5849 5848 5847 5844 5842 5838 5834 5831 5828 5826 5824 5821 5818 5815 5812 5809 5806 5803 5799 5795 5790 5786 5781 5777 5774 5770 5765 5761 5755 5750 5744 5738 5733 5729 5725 5720 5715 5710 5704 5698 5692 5687 5682 5675 5667 5658 5650 5642 5634 5627 5619 5611 5602 5593 5583 5573 5563 5553 5543 5534 5524 5515 5507 5499 5492 5486 5479 5473 5467 5463 5459 5455 5451 5447 5443 5439 5435 5432 5429 5425
5862 5859 5856 5853 5852 5851 5850 5850 5847 5844 5841 5837 5834 5830 5827 5825 5823 5820 5818 5815 5812 5808 5805 5802 5798 5793 5789 5784 5779 5776 5772 5767 5763 5758 5753 5747 5741 5736 5731 5728 5723 5717 5712 5707 5701 5695 5690 5685 5679 5672 5663 5654 5646 5639 5631 5623 5615 5607 5598 5590 5580 5571 5561 5551 5541 5532 5523 5514 5505 5497 5489 5482 5476 5471 5466 5461 5457 5453 5449 5444 5440 5436 5432 5428 5425 5421
5861 5858 5855 5853 5852 5851 5851 5850 5846 5843 5840 5836 5833 5830 5827 5825 5822 5819 5817 5814 5811 5807 5803 5799 5795 5790 5786 5781 5778 5774 5769 5764 5760 5755 5750 5745 5739 5734 5730 5725 5720 5715 5710 5704 5698 5692 5687 5682 5676 5668 5659 5651 5643 5635 5627 5619 5612 5604 5595 5586 5577 5567 5558 5548 5539 5530 5521 5512 5503 5495 5487 5480 5474 5468 5464 5459 5455 5451 5446 5442 5437 5433 5428 5424 5420 5416
5860 5857 5855 5854 5853 5853 5851 5849 5845 5842 5838 5835 5832 5829 5827 5824 5821 5818 5816 5812 5809 5805 5801 5797 5792 5786 5782 5778 5775 5771 5766 5762 5757 5753 5747 5741 5736 5732 5728 5723 5718 5713 5707 5701 5696 5690 5685 5679 5672 5664 5655 5648 5640 5632 5624 5616 5609 5601 5592 5583 5574 5564 5555 5546 5537 5528 5519 5510 5501 5493 5486 5479 5473 5467 5462 5457 5453 5448 5444 5439 5435 5430 5425 5420 5416 5412
5860 5858 5856 5855 5854 5852 5850 5847 5844 5841 5837 5834 5831 5829 5826 5824 5821 5818 5814 5811 5807 5803 5798 5793 5789 5785 5782 5777 5773 5769 5764 5759 5754 5749 5744 5739 5734 5730 5726 5721 5716 5711 5705 5699 5694 5688 5682 5676 5668 5660 5652 5645 5637 5628 5621 5613 5605 5597 5589 5580 5571 5562 5553 5544 5535 5526 5517 5508 5500 5491 5484 5478 5472 5467 5462 5456 5451 5446 5442 5437 5432 5427 5422 5417 5412 5407
5860 5858 5857 5856 5854 5852 5849 5846 5843 5840 5837 5834 5831 5828 5825 5822 5820 5817 5813 5809 5805 5800 5795 5791 5787 5784 5780 5775 5771 5766 5761 5757 5752 5747 5742 5737 5733 5729 5725 5719 5714 5709 5703 5697 5692 5686 5680 5673 5664 5657 5649 5642 5634 5626 5618 5610 5602 5594 5586 5577 5568 5560 5551 5542 5533 5524 5515 5507 5498 5490 5482 5476 5471 5466 5461 5456 5450 5445 5439 5434 5429 5424 5418 5413 5408 5403
5860 5858 5857 5855 5853 5851 5849 5846 5842 5839 5836 5833 5830 5827 5824 5822 5819 5815 5811 5807 5802 5798 5793 5790 5786 5781 5777 5772 5767 5763 5758 5754 5750 5746 5742 5737 5733 5728 5723 5717 5712 5707 5701 5695 5689 5683 5676 5669 5661 5654 5646 5639 5631 5623 5616 5608 5600 5592 5584 5575 5567 5558 5549 5540 5532 5523 5514 5505 5496 5488 5481 5474 5469 5463 5458 5453 5447 5442 5436 5431 5425 5420 5414 5409 5404 5398
5860 5858 5856 5855 5852 5850 5848 5845 5842 5839 5835 5832 5829 5827 5824 5821 5817 5814 5809 5804 5800 5796 5792 5789 5785 5780 5774 5770 5765 5761 5757 5753 5749 5745 5740 5736 5731 5726 5721 5716 5711 5705 5699 5693 5687 5680 5672 5665 5658 5651 5644 5636 5629 5621 5614 5606 5598 5590 5581 5573 5565 5557 5548 5539 5530 5521 5512 5503 5495 5487 5479 5473 5467 5460 5455 5449 5444 5438 5432 5426 5421 5416 5410 5405 5399 5394
5860 5858 5856 5854 5852 5850 5847 5844 5841 5838 5835 5832 5829 5826 5823 5819 5815 5811 5807 5803 5798 5793 5790 5787 5783 5778 5774 5769 5765 5761 5757 5752 5747 5743 5738 5734 5730 5725 5719 5714 5708 5703 5697 5691 5684 5677 5670 5663 5656 5649 5641 5634 5627 5619 5611 5603 5596 5588 5579 5571 5564 5555 5546 5537 5528 5519 5510 5501 5493 5485 5478 5471 5464 5458 5452 5446 5440 5434 5428 5422 5416 5410 5405 5399 5394 5388
5859 5857 5855 5853 5851 5849 5846 5843 5840 5837 5833 5830 5827 5824 5821 5817 5813 5809 5805 5801 5798 5793 5788 5784 5780 5776 5772 5768 5764 5760 5756 5750 5746 5742 5737 5733 5728 5723 5717 5712 5706 5701 5695 5688 5681 5674 5667 5660 5653 5647 5640 5632 5625 5617 5609 5601 5593 5586 5578 5570 5561 5553 5544 5535 5526 5517 5508 5500 5492 5484 5476 5469 5462 5455 5449 5442 5436 5430 5424 5418 5412 5406 5400 5394 5389 5383
5859 5856 5854 5852 5850 5847 5844 5841 5838 5835 5832 5829 5826 5822 5819 5816 5812 5808 5804 5799 5796 5793 5788 5784 5780 5776 5771 5766 5762 5759 5754 5749 5744 5740 5735 5731 5726 5720 5715 5710 5704 5698 5692 5686 5679 5671 5664 5658 5651 5644 5638 5630 5623 5615 5607 5599 5592 5584 5575 5567 5559 5551 5542 5533 5524 5515 5507 5498 5490 5482 5474 5467 5460 5453 5447 5440 5433 5426 5420 5413 5407 5401 5395 5390 5384 5378
5858 5855 5853 5851 5848 5845 5842 5839 5837 5833 5830 5828 5825 5821 5818 5815 5811 5807 5803 5798 5793 5790 5787 5782 5779 5776 5772 5767 5763 5757 5752 5748 5743 5738 5733 5728 5723 5718 5713 5707 5702 5696 5690 5683 5676 5669 5662 5655 5649 5642 5636 5629 5621 5613 5605 5597 5590 5581 5573 5565 5557 5549 5540 5531 5523 5514 5506 5497 5489 5481 5473 5465 5458 5451 5444 5438 5431 5424 5417 5410 5403 5397 5391 5385 5380 5374
5857 5854 5852 5849 5846 5843 5840 5838 5835 5832 5829 5826 5823 5820 5816 5813 5810 5805 5801 5796 5791 5787 5784 5779 5774 5772 5769 5765 5760 5755 5750 5746 5742 5736 5731 5726 5721 5716 5710 5705 5700 5694 5687 5681 5673 5666 5659 5653 5647 5641 5634 5627 5619 5611 5603 5595 5587 5579 5571 5563 5555 5547 5538 5530 5521 5513 5505 5497 5488 5480 5472 5464 5457 5449 5442 5435 5428 5421 5414 5407 5400 5394 5388 5382 5376 5369
5855 5853 5850 5847 5845 5842 5839 5836 5833 5830 5827 5824 5821 5817 5814 5810 5806 5802 5798 5794 5789 5784 5782 5778 5772 5767 5764 5761 5757 5753 5748 5744 5740 5734 5728 5723 5718 5713 5709 5703 5698 5691 5685 5678 5671 5664 5657 5650 5645 5638 5632 5624 5617 5609 5601 5593 5585 5577 5569 5561 5553 5545 5537 5529 5520 5512 5504 5495 5487 5478 5470 5463 5455 5447 5439 5432 5425 5418 5412 5405 5398 5391 5384 5378 5372 5365
5854 5851 5849 5846 5843 5840 5837 5834 5831 5828 5825 5822 5819 5815 5811 5807 5803 5799 5794 5790 5786 5781 5777 5775 5771 5765 5761 5758 5753 5749 5745 5740 5737 5732 5726 5721 5716 5711 5706 5701 5695 5689 5682 5675 5668 5661 5654 5648 5642 5636 5629 5622 5615 5607 5599 5591 5583 5575 5567 5559 5552 5544 5536 5527 5519 5511 5502 5494 5486 5477 5469 5461 5453 5445 5437 5430 5423 5416 5409 5402 5395 5388 5382 5375 5368 5361
5853 5850 5847 5845 5842 5839 5836 5833 5830 5827 5823 5820 5817 5813 5809 5805 5800 5796 5792 5787 5782 5778 5773 5770 5768 5763 5758 5755 5750 5746 5741 5737 5732 5728 5723 5718 5714 5709 5704 5698 5693 5686 5679 5672 5665 5658 5652 5646 5640 5633 5627 5620 5613 5605 5597 5589 5581 5573 5565 5558 5551 5543 5535 5526 5518 5510 5502 5493 5485 5477 5468 5459 5451 5443 5435 5428 5420 5413 5406 5399 5392 5385 5378 5371 5364 5357
5851 5849 5846 5843 5841 5837 5834 5831 5828 5825 5822 5819 5815 5811 5806 5802 5798 5794 5790 5785 5780 5777 5772 5767 5765 5762 5756 5752 5748 5743 5739 5734 5729 5725 5721 5716 5712 5707 5701 5696 5690 5683 5676 5669 5662 5656 5650 5644 5637 5631 5625 5618 5611 5603 5595 5587 5579 5572 5564 5557 5549 5542 5534 5525 5517 5509 5501 5493 5484 5476 5467 5458 5450 5442 5434 5426 5418 5411 5404 5397 5390 5382 5375 5367 5359 5352
5850 5847 5845 5842 5839 5836 5833 5830 5827 5823 5820 5816 5812 5809 5805 5801 5797 5791 5787 5782 5778 5774 5770 5765 5763 5761 5755 5749 5745 5740 5736 5732 5727 5723 5719 5714 5709 5704 5698 5693 5687 5681 5674 5667 5660 5654 5648 5642 5635 5629 5623 5616 5609 5601 5594 5586 5578 5571 5563 5556 5548 5541 5533 5524 5516 5508 5500 5492 5483 5474 5466 5457 5448 5440 5432 5424 5417 5409 5402 5394 5386 5379 5371 5363 5355 5347
5849 5846 5843 5840 5837 5835 5832 5828 5825 5821 5817 5814 5810 5807 5803 5799 5795 5790 5785 5780 5776 5772 5768 5763 5760 5758 5753 5748 5743 5739 5734 5729 5724 5719 5715 5711 5707 5701 5696 5690 5684 5678 5672 5665 5659 5653 5646 5640 5633 5627 5621 5614 5606 5599 5592 5585 5577 5570 5562 5555 5547 5539 5531 5523 5515 5507 5499 5491 5482 5473 5464 5456 5447 5439 5431 5423 5415 5407 5399 5391 5383 5375 5367 5359 5351 5343
5846 5844 5841 5839 5836 5834 5831 5828 5825 5820 5816 5813 5809 5805 5801 5797 5793 5789 5784 5779 5775 5771 5766 5761 5757 5755 5751 5746 5741 5736 5732 5727 5722 5717 5713 5709 5704 5699 5694 5688 5682 5676 5670 5663 5657 5651 5644 5638 5632 5626 5619 5612 5605 5598 5591 5584 5576 5569 5561 5554 5546 5538 5531 5522 5514 5506 5498 5490 5481 5472 5463 5455 5446 5438 5430 5421 5413 5405 5396 5388 5380 5371 5363 5355 5347 5338
5844 5841 5838 5835 5832 5830 5828 5825 5823 5820 5815 5811 5807 5803 5799 5794 5790 5785 5781 5777 5772 5769 5766 5759 5755 5753 5750 5746 5741 5736 5731 5727 5723 5718 5713 5708 5703 5697 5692 5687 5681 5675 5668 5662 5655 5649 5642 5636 5630 5624 5617 5610 5603 5596 5590 5583 5575 5568 5560 5553 5545 5538 5529 5521 5513 5505 5497 5489 5480 5471 5463 5454 5446 5437 5429 5420 5411 5402 5394 5385 5376 5368 5359 5351 5343 5334
5842 5839 5836 5833 5829 5826 5824 5821 5818 5816 5812 5808 5804 5800 5795 5791 5787 5782 5778 5774 5770 5767 5765 5758 5751 5749 5747 5744 5740 5736 5731 5727 5722 5718 5713 5707 5701 5696 5690 5685 5679 5672 5666 5660 5653 5647 5640 5635 5629 5622 5615 5608 5601 5595 5588 5582 5574 5566 5559 5552 5544 5536 5528 5520 5513 5504 5496 5487 5479 5470 5462 5453 5445 5436 5428 5418 5409 5400 5391 5382 5373 5365 5356 5348 5339 5329
5840 5837 5834 5831 5828 5825 5823 5819 5816 5813 5809 5805 5802 5798 5793 5788 5784 5779 5775 5771 5767 5763 5761 5757 5751 5745 5742 5740 5736 5732 5728 5724 5719 5715 5710 5705 5699 5693 5688 5682 5676 5670 5663 5657 5651 5644 5639 5633 5627 5620 5613 5606 5599 5593 5587 5580 5573 5565 5558 5550 5543 5535 5527 5519 5511 5503 5495 5486 5478 5469 5461 5452 5443 5435 5426 5417 5407 5398 5389 5379 5371 5363 5354 5344 5335 5325
5838 5836 5833 5830 5826 5822 5820 5817 5814 5810 5806 5802 5798 5795 5790 5786 5781 5777 5773 5769 5765 5761 5757 5754 5750 5744 5739 5737 5734 5729 5724 5720 5715 5711 5706 5701 5696 5690 5685 5679 5673 5667 5661 5654 5648 5643 5637 5631 5624 5618 5611 5605 5598 5591 5585 5578 5571 5563 5556 5549 5542 5534 5526 5518 5511 5502 5494 5486 5477 5468 5460 5451 5442 5433 5424 5415 5406 5397 5388 5379 5370 5361 5351 5341 5332 5322
5836 5833 5831 5829 5825 5820 5817 5814 5811 5808 5805 5800 5795 5792 5789 5784 5779 5774 5770 5767 5763 5759 5755 5751 5748 5744 5737 5733 5730 5727 5722 5717 5712 5707 5703 5698 5692 5687 5682 5676 5671 5665 5659 5652 5647 5641 5635 5629 5623 5616 5610 5603 5597 5590 5584 5577 5570 5562 5555 5547 5540 5533 5525 5518 5510 5502 5493 5485 5476 5468 5459 5450 5441 5432 5424 5415 5406 5397 5388 5379 5369 5360 5350 5340 5330 5320
5832 5830 5828 5826 5824 5820 5815 5811 5808 5805 5802 5798 5793 5790 5787 5783 5778 5772 5767 5764 5760 5757 5753 5748 5745 5741 5736 5731 5728 5724 5719 5714 5709 5705 5700 5695 5690 5685 5679 5674 5669 5663 5657 5651 5646 5640 5634 5628 5621 5615 5609 5602 5596 5589 5582 5576 5569 5561 5554 5546 5539 5532 5525 5517 5509 5501 5493 5485 5476 5467 5458 5450 5441 5432 5423 5415 5406 5397 5388 5379 5369 5360 5350 5340 5330 5319
5829 5827 5824 5822 5821 5818 5813 5810 5806 5802 5799 5794 5790 5787 5785 5781 5777 5771 5766 5761 5757 5754 5750 5746 5741 5737 5733 5729 5726 5722 5717 5712 5707 5702 5698 5693 5687 5683 5678 5673 5667 5661 5656 5650 5645 5639 5633 5627 5620 5614 5608 5601 5595 5588 5581 5574 5568 5560 5552 5545 5538 5531 5524 5516 5508 5500 5493 5485 5476 5467 5458 5449 5441 5432 5423 5415 5406 5397 5388 5379 5369 5359 5350 5340 5329 5319
5825 5823 5820 5817 5816 5815 5810 5807 5804 5800 5796 5792 5788 5785 5782 5780 5776 5771 5765 5759 5755 5751 5747 5743 5739 5735 5730 5726 5722 5719 5716 5710 5704 5699 5695 5691 5686 5681 5676 5671 5665 5660 5654 5649 5643 5637 5631 5625 5619 5613 5606 5600 5593 5586 5580 5573 5566 5559 5551 5544 5537 5530 5523 5515 5508 5500 5492 5484 5476 5467 5458 5449 5441 5432 5424 5415 5406 5397 5388 5379 5369 5359 5349 5339 5329 5318
5821 5819 5816 5813 5811 5810 5807 5803 5800 5797 5793 5789 5785 5781 5779 5777 5774 5770 5764 5758 5753 5749 5745 5741 5737 5732 5728 5723 5718 5715 5713 5708 5702 5697 5693 5688 5684 5679 5674 5668 5663 5658 5653 5647 5641 5636 5630 5624 5618 5611 5605 5598 5592 5585 5578 5572 5565 5558 5551 5544 5537 5529 5522 5515 5507 5499 5491 5483 5475 5466 5458 5449 5440 5432 5424 5415 5407 5397 5388 5379 5369 5358 5349 5339 5329 5318
5817 5815 5812 5808 5806 5804 5802 5799 5796 5794 5789 5784 5780 5777 5775 5773 5770 5768 5764 5757 5750 5747 5743 5739 5735 5730 5725 5720 5715 5711 5709 5706 5700 5694 5690 5686 5681 5676 5671 5666 5660 5655 5650 5645 5639 5634 5628 5622 5616 5610 5603 5597 5590 5584 5577 5571 5564 5557 5550 5543 5536 5529 5521 5514 5506 5498 5490 5482 5474 5466 5457 5448 5440 5432 5423 5415 5407 5397 5388 5378 5368 5358 5348 5338 5328 5317
5813 5810 5807 5804 5801 5799 5797 5794 5791 5789 5786 5780 5776 5774 5771 5768 5766 5764 5761 5756 5749 5744 5740 5736 5732 5728 5722 5718 5713 5708 5705 5703 5697 5691 5687 5683 5678 5673 5668 5663 5658 5653 5648 5643 5638 5632 5627 5621 5614 5608 5601 5595 5588 5582 5575 5569 5562 5555 5548 5541 5534 5527 5520 5513 5505 5497 5489 5481 5473 5465 5456 5448 5439 5431 5423 5415 5406 5397 5388 5378 5368 5358 5348 5338 5327 5317
5809 5806 5802 5799 5796 5793 5791 5789 5786 5784 5781 5776 5772 5770 5767 5764 5761 5758 5756 5753 5747 5741 5737 5733 5729 5725 5719 5715 5711 5705 5701 5699 5695 5690 5685 5681 5676 5671 5666 5660 5655 5651 5646 5641 5636 5630 5625 5619 5612 5606 5600 5593 5586 5580 5573 5567 5560 5554 5547 5540 5533 5526 5519 5511 5504 5496 5488 5481 5473 5465 5456 5447 5439 5430 5423 5415 5406 5397 5388 5378 5368 5358 5348 5338 5328 5317
5804 5801 5798 5794 5791 5788 5785 5783 5780 5778 5776 5771 5767 5764 5762 5759 5756 5752 5750 5749 5745 5738 5733 5729 5725 5721 5716 5711 5707 5702 5697 5695 5692 5688 5682 5678 5673 5668 5663 5659 5654 5649 5644 5639 5633 5628 5622 5616 5611 5604 5597 5591 5584 5578 5571 5565 5559 5552 5545 5538 5532 5525 5517 5510 5502 5495 5488 5480 5472 5464 5456 5448 5439 5430 5422 5414 5406 5397 5388 5378 5368 5359 5349 5338 5327 5317
5800 5797 5794 5790 5787 5783 5780 5777 5774 5771 5769 5766 5761 5758 5755 5754 5751 5746 5743 5743 5740 5735 5729 5725 5720 5716 5712 5707 5703 5699 5694 5690 5687 5684 5679 5674 5670 5665 5661 5657 5652 5647 5642 5637 5631 5625 5620 5614 5609 5602 5596 5589 5583 5576 5570 5563 5556 5550 5543 5537 5530 5523 5516 5508 5501 5494 5487 5479 5472 5464 5456 5448 5439 5430 5422 5413 5405 5397 5389 5379 5369 5359 5349 5338 5328 5317
5796 5792 5790 5787 5783 5780 5776 5774 5770 5766 5763 5759 5755 5751 5749 5748 5745 5740 5736 5735 5733 5729 5724 5720 5715 5711 5707 5703 5699 5695 5690 5685 5682 5679 5675 5671 5667 5663 5659 5655 5650 5645 5640 5634 5629 5623 5618 5612 5606 5600 5594 5587 5581 5574 5568 5561 5555 5548 5542 5535 5528 5521 5514 5507 5499 5492 5485 5478 5471 5464 5456 5448 5439 5431 5422 5413 5405 5397 5389 5380 5370 5360 5350 5340 5330 5319
5791 5788 5785 5782 5779 5776 5773 5769 5766 5764 5760 5754 5750 5746 5743 5741 5739 5734 5730 5728 5726 5723 5718 5714 5710 5706 5703 5699 5696 5692 5688 5683 5678 5675 5672 5668 5664 5660 5656 5652 5648 5643 5638 5632 5627 5621 5615 5610 5604 5598 5592 5585 5579 5572 5566 5559 5553 5546 5539 5533 5526 5519 5512 5505 5498 5491 5484 5477 5470 5463 5456 5448 5439 5431 5422 5414 5405 5397 5389 5380 5372 5362 5352 5342 5332 5323
5785 5782 5779 5776 5773 5771 5769 5765 5760 5759 5756 5751 5745 5741 5738 5735 5733 5729 5725 5723 5720 5717 5713 5710 5707 5702 5699 5696 5692 5689 5685 5681 5676 5672 5669 5665 5661 5657 5653 5649 5644 5640 5635 5630 5624 5619 5613 5608 5602 5595 5589 5583 5576 5570 5564 5557 5551 5544 5537 5530 5524 5517 5511 5504 5497 5489 5482 5476 5469 5462 5455 5448 5440 5431 5423 5414 5406 5397 5389 5381 5373 5364 5353 5344 5334 5325
5780 5776 5773 5770 5766 5764 5763 5760 5755 5752 5750 5746 5740 5736 5733 5730 5727 5723 5720 5719 5717 5713 5709 5707 5704 5699 5695 5693 5690 5686 5682 5678 5673 5670 5666 5661 5658 5654 5650 5646 5641 5637 5632 5627 5622 5617 5611 5605 5599 5593 5587 5581 5574 5568 5561 5555 5549 5542 5536 5529 5522 5515 5509 5502 5495 5488 5481 5474 5467 5461 5454 5447 5439 5431 5423 5415 5406 5398 5389 5382 5374 5365 5356 5346 5337 5328
5775 5771 5767 5764 5760 5757 5756 5756 5752 5747 5744 5740 5735 5731 5728 5725 5722 5718 5715 5714 5713 5709 5705 5702 5700 5696 5691 5688 5686 5682 5679 5675 5670 5667 5663 5658 5655 5651 5647 5643 5638 5634 5629 5624 5620 5615 5609 5603 5597 5590 5584 5578 5572 5565 5559 5552 5546 5540 5534 5527 5520 5514 5507 5501 5494 5487 5480 5473 5466 5459 5453 5446 5439 5431 5424 5416 5407 5398 5390 5382 5375 5366 5358 5349 5340 5331
5769 5765 5762 5760 5755 5751 5750 5751 5747 5743 5741 5736 5731 5727 5725 5721 5717 5713 5710 5708 5706 5704 5700 5696 5695 5692 5688 5684 5681 5678 5675 5671 5667 5663 5660 5655 5651 5648 5644 5640 5635 5631 5626 5621 5617 5612 5607 5601 5595 5588 5582 5576 5569 5563 5557 5550 5544 5538 5531 5525 5518 5512 5506 5499 5493 5486 5479 5472 5465 5458 5451 5445 5438 5431 5424 5417 5409 5400 5392 5384 5376 5368 5360 5352 5344 5335
5764 5759 5757 5757 5752 5746 5746 5746 5741 5738 5738 5735 5728 5723 5719 5716 5714 5710 5707 5704 5701 5698 5696 5692 5690 5688 5684 5680 5677 5674 5671 5667 5663 5660 5656 5652 5648 5644 5640 5636 5632 5627 5623 5618 5614 5609 5604 5598 5593 5586 5579 5573 5567 5561 5555 5548 5542 5536 5529 5522 5516 5510 5504 5498 5491 5485 5478 5471 5464 5457 5450 5443 5437 5430 5423 5416 5408 5401 5393 5386 5378 5370 5363 5355 5346 5338
5759 5754 5751 5751 5747 5741 5740 5742 5737 5731 5732 5730 5725 5719 5714 5710 5709 5706 5702 5699 5697 5694 5692 5688 5685 5683 5680 5676 5672 5670 5667 5663 5660 5657 5653 5649 5645 5641 5637 5633 5628 5624 5619 5615 5610 5605 5600 5595 5590 5584 5578 5571 5565 5558 5552 5546 5540 5533 5527 5521 5514 5508 5502 5496 5489 5483 5477 5470 5463 5456 5449 5442 5435 5429 5423 5415 5407 5399 5393 5386 5379 5372 5365 5358 5350 5341
5752 5749 5747 5743 5740 5736 5735 5735 5731 5726 5726 5725 5720 5714 5709 5706 5704 5703 5699 5695 5692 5690 5687 5684 5681 5678 5675 5672 5668 5666 5664 5660 5656 5653 5650 5646 5641 5637 5633 5629 5625 5620 5616 5611 5606 5602 5597 5591 5586 5581 5575 5569 5562 5556 5550 5544 5537 5531 5525 5519 5512 5506 5500 5494 5488 5482 5475 5469 5462 5455 5448 5441 5434 5428 5422 5417 5409 5400 5392 5385 5379 5373 5366 5360 5352 5344
5746 5744 5742 5736 5732 5730 5730 5728 5723 5718 5720 5722 5717 5710 5705 5700 5698 5698 5696 5692 5688 5685 5683 5680 5677 5673 5670 5667 5664 5662 5660 5656 5652 5649 5646 5642 5638 5634 5630 5626 5621 5616 5612 5607 5603 5598 5593 5587 5582 5577 5572 5567 5560 5554 5547 5541 5535 5529 5523 5517 5510 5504 5498 5492 5486 5480 5474 5467 5461 5455 5448 5441 5434 5427 5421 5416 5411 5404 5395 5386 5379 5373 5367 5360 5352 5345
5741 5739 5737 5730 5725 5724 5724 5722 5716 5709 5710 5713 5711 5707 5702 5696 5692 5692 5690 5686 5683 5681 5678 5675 5673 5669 5665 5662 5659 5657 5655 5652 5648 5644 5641 5638 5634 5630 5626 5621 5617 5612 5608 5603 5598 5594 5588 5583 5578 5573 5568 5563 5558 5551 5545 5538 5532 5526 5520 5514 5508 5502 5496 5490 5483 5478 5472 5466 5460 5454 5448 5442 5435 5428 5421 5414 5409 5404 5398 5390 5381 5374 5367 5360 5353 5345
5738 5735 5731 5724 5719 5718 5719 5716 5710 5704 5702 5703 5703 5701 5697 5691 5687 5686 5684 5680 5678 5675 5672 5669 5667 5665 5661 5657 5654 5651 5650 5647 5643 5639 5636 5633 5629 5625 5621 5617 5612 5608 5603 5598 5594 5589 5584 5579 5574 5569 5564 5559 5554 5549 5542 5535 5529 5523 5517 5512 5506 5500 5494 5488 5482 5476 5470 5465 5459 5453 5447 5441 5435 5428 5421 5414 5407 5402 5397 5391 5383 5375 5367 5361 5354 5346